KUIPER-00275

Last updated on Sun Mar 15 2026 00:02:06 GMT+0000 (Coordinated Universal Time)

1 67793U 26030AF 26073.59492302 .00043513 00000+0 12647-2 0 9992 2 67793 51.8847 195.7041 0009832 69.2220 290.9819 15.34989993 5842
UTC large
Height (km)
Speed (km/s)
/
Latitude / Longitude
Inclination (degrees)
Orbital Period (minutes)
Azimuth
Elevation
Range (km)
Doppler Factor

Next 0 passes for location: London (51.5072 / 0.1276)

Sorry there are no passes over London.